1484067600.27,35605,6.44,72362.3,-19.67,-52.07,-52.35,0,*6D
1484067601.55,35606,6.44,72358.0,-19.67,-52.29,-52.51,0,*60
1484067602.83,35607,6.44,72362.8,-19.67,-52.29,-52.51,0,*61
1484067604.09,35608,6.44,72360.3,-19.67,-52.13,-52.29,0,*68
1484067605.36,35609,6.44,72360.3,-19.67,-51.91,-52.13,0,*69
1484067606.61,35610,6.44,72358.5,-19.67,-52.07,-52.13,0,*6D
1484067607.85,35611,6.44,72356.5,-19.67,-52.07,-52.29,0,*65
1484067609.1,35612,6.44,72356.5,-19.67,-52.29,-52.57,0,*63
1484067610.38,35613,6.44,72354.0,-19.65,-52.29,-52.57,0,*60
1484067611.63,35614,6.44,72356.3,-19.67,-52.35,-52.73,0,*6E
1484067612.86,35615,6.44,72356.8,-19.67,-52.35,-52.57,0,*69
1484067614.13,35616,6.44,72360.0,-19.67,-52.29,-52.73,0,*61
1484067615.41,35617,6.44,72358.5,-19.69,-52.21,-52.65,0,*61
1484067616.68,35618,6.44,72356.5,-19.69,-52.13,-52.57,0,*6E
1484067617.95,35619,6.44,72354.3,-19.67,-52.13,-52.73,0,*67
1484067619.23,35620,6.44,72354.3,-19.67,-52.29,-52.73,0,*64
1484067620.48,35621,6.44,72352.0,-19.69,-52.35,-52.79,0,*6C
1484067621.75,35622,6.44,72352.8,-19.67,-52.29,-52.73,0,*66
1484067623.02,35623,6.44,72354.0,-19.69,-51.99,-52.35,0,*63
1484067624.29,35624,6.44,72358.3,-19.69,-51.99,-52.35,0,*64
1484067625.51,35625,6.44,72358.8,-19.67,-51.77,-52.07,0,*6A
1484067626.81,35626,6.44,72362.5,-19.69,-51.63,-52.13,0,*67
1484067628.08,35627,6.44,72354.5,-19.67,-51.91,-52.29,0,*6C
1484067629.32,35628,6.44,72356.0,-19.67,-52.07,-52.13,0,*66
1484067630.6,35629,6.44,72356.3,-19.69,-51.85,-51.99,0,*61
1484067631.84,35630,6.44,72358.3,-19.67,-51.77,-52.13,0,*6B
1484067633.07,35631,6.44,72356.8,-19.67,-51.77,-52.07,0,*6F
1484067634.29,35632,6.44,72358.5,-19.67,-51.77,-52.07,0,*6C
1484067635.54,35633,6.44,72356.0,-19.67,-52.13,-52.35,0,*6D
1484067636.79,35634,6.44,72350.8,-19.69,-52.35,-52.79,0,*68
1484067638.03,35635,6.44,72352.3,-19.69,-52.35,-52.79,0,*69
1484067639.31,35636,6.44,72358.5,-19.69,-52.13,-52.35,0,*66
1484067640.58,35637,6.44,72354.8,-19.69,-51.99,-52.35,0,*66
1484067641.85,35638,6.44,72350.0,-19.69,-51.91,-52.35,0,*61
1484067643.12,35639,6.44,72346.8,-19.67,-51.91,-52.29,0,*63
1484067644.39,35640,6.44,72352.3,-19.67,-52.13,-52.13,0,*6D
1484067645.63,35641,6.44,72352.5,-19.67,-52.07,-52.29,0,*60
1484067646.88,35642,6.44,72348.8,-19.69,-52.35,-52.65,0,*64
1484067648.19,35643,6.44,72342.5,-19.69,-52.21,-52.43,0,*64
1484067649.41,35644,6.44,72346.8,-19.67,-52.35,-52.57,0,*6D
1484067650.66,35645,6.44,72348.3,-19.69,-52.35,-52.57,0,*62
1484067651.93,35646,6.44,72350.0,-19.69,-51.99,-52.35,0,*60
1484067653.21,35647,6.44,72356.5,-19.69,-52.13,-52.57,0,*64
1484067654.48,35648,6.44,72354.8,-19.69,-51.99,-52.57,0,*6A
1484067655.75,35649,6.44,72350.0,-19.69,-52.21,-52.57,0,*6B
1484067657.03,35650,6.44,72354.3,-19.71,-52.13,-52.43,0,*6E
1484067658.3,35651,6.44,72342.3,-19.69,-51.99,-52.35,0,*66
1484067659.57,35652,6.44,72344.8,-19.69,-52.21,-52.57,0,*61
1484067660.82,35653,6.44,72352.3,-19.69,-52.35,-52.65,0,*64
1484067662.07,35654,6.44,72350.5,-19.71,-51.91,-52.35,0,*62
1484067663.37,35655,6.44,72358.3,-19.69,-51.99,-52.43,0,*63
1484067664.68,35656,6.44,72360.3,-19.69,-52.13,-52.43,0,*61
1484067665.94,35657,6.44,72354.5,-19.69,-51.85,-52.13,0,*69
1484067667.21,35658,6.44,72354.3,-19.69,-51.85,-52.13,0,*66
1484067668.48,35659,6.44,72358.0,-19.69,-51.69,-52.21,0,*64
1484067669.73,35660,6.38,72352.8,-19.69,-51.85,-52.35,0,*69
1484067670.98,35661,6.44,72356.0,-19.71,-52.13,-52.57,0,*69
1484067672.25,35662,6.44,72352.3,-19.71,-51.99,-52.43,0,*6E
1484067673.52,35663,6.44,72350.0,-19.71,-52.13,-52.21,0,*6A
1484067674.79,35664,6.44,72354.8,-19.73,-52.07,-52.43,0,*6E
1484067676.08,35665,6.44,72354.8,-19.73,-52.21,-52.43,0,*6B
1484067677.33,35666,6.44,72356.8,-19.71,-51.99,-52.57,0,*6F
1484067678.62,35667,6.44,72352.8,-19.73,-52.43,-52.73,0,*6E
1484067679.91,35668,6.44,72348.8,-19.73,-52.29,-52.51,0,*6D
1484067681.16,35669,6.44,72346.8,-19.71,-52.21,-52.57,0,*60
1484067682.45,35670,6.44,72348.0,-19.73,-52.21,-52.43,0,*6F
1484067683.74,35671,6.44,72344.5,-19.73,-52.43,-52.51,0,*69
1484067685.03,35672,6.44,72346.3,-19.73,-52.21,-52.51,0,*6E
1484067686.3,35673,6.44,72350.8,-19.73,-52.29,-52.87,0,*6C
1484067687.55,35674,6.44,72354.0,-19.71,-52.13,-52.65,0,*6C
1484067688.83,35675,6.44,72354.0,-19.73,-51.91,-52.29,0,*6E
1484067690.1,35676,6.44,72356.3,-19.73,-51.91,-52.07,0,*61
1484067691.33,35677,6.44,72354.3,-19.73,-52.07,-52.35,0,*6D
1484067692.57,35678,6.44,72354.5,-19.71,-51.99,-52.35,0,*64
1484067693.84,35679,6.44,72352.0,-19.73,-52.07,-52.51,0,*61
1484067695.12,35680,6.44,72352.3,-19.73,-51.99,-52.51,0,*63
1484067696.41,35681,6.44,72352.5,-19.73,-51.91,-52.29,0,*65
1484067697.67,35682,6.44,72352.3,-19.73,-52.21,-52.65,0,*66
1484067698.96,35683,6.44,72354.8,-19.73,-52.29,-52.51,0,*68
1484067700.23,35684,6.44,72358.0,-19.73,-52.29,-52.65,0,*68
1484067701.5,35685,6.38,72350.8,-19.73,-51.99,-52.29,0,*69
1484067702.77,35686,6.44,72348.0,-19.73,-52.21,-52.65,0,*62
1484067704.03,35687,6.44,72342.3,-19.73,-52.43,-52.65,0,*67
1484067705.32,35688,6.44,72358.0,-19.73,-52.29,-52.73,0,*63
1484067706.6,35689,6.44,72352.3,-19.71,-52.13,-52.43,0,*6A
1484067707.89,35690,6.44,72358.8,-19.73,-51.91,-52.43,0,*69
1484067709.18,35691,6.44,72354.5,-19.73,-51.99,-52.43,0,*60
1484067710.47,35692,6.44,72356.3,-19.73,-51.99,-52.43,0,*63
1484067711.77,35693,6.44,72358.3,-19.73,-51.91,-52.43,0,*6A
1484067713.06,35694,6.44,72356.5,-19.73,-51.99,-52.43,0,*65
1484067714.32,35695,6.44,72356.8,-19.73,-51.99,-52.65,0,*60
1484067715.61,35696,6.44,72358.0,-19.73,-51.91,-52.51,0,*6C
1484067716.88,35697,6.44,72354.3,-19.73,-51.77,-52.43,0,*66
1484067718.17,35698,6.44,72348.0,-19.73,-51.99,-52.43,0,*69
1484067719.46,35699,6.44,72352.5,-19.73,-51.91,-52.43,0,*60
1484067720.72,35700,6.44,72348.8,-19.77,-51.99,-52.35,0,*6C
1484067721.98,35701,6.44,72350.8,-19.77,-51.85,-52.29,0,*6D
1484067723.23,35702,6.44,72354.5,-19.77,-51.77,-52.13,0,*6A
1484067724.47,35703,6.38,72350.8,-19.77,-51.19,-51.77,0,*62
1484067725.74,35704,6.44,72352.8,-19.77,-51.33,-51.77,0,*6D
1484067727.0,35705,6.44,72352.5,-19.77,-51.11,-51.63,0,*69
1484067728.29,35706,6.44,72354.5,-19.77,-51.33,-51.63,0,*6A
1484067729.52,35707,6.44,72354.8,-19.71,-51.69,-52.07,0,*63
1484067730.76,35708,6.44,72356.0,-19.71,-50.89,-51.33,0,*67
1484067732.03,35709,6.44,72352.3,-19.73,-51.25,-51.69,0,*6C
1484067733.26,35710,6.44,72358.8,-19.73,-50.89,-51.11,0,*6C
1484067734.51,35711,6.44,72362.3,-19.71,-50.83,-51.05,0,*60
1484067735.81,35712,6.44,72360.5,-19.73,-51.25,-51.47,0,*6A
1484067737.07,35713,6.44,72364.8,-19.73,-50.89,-51.25,0,*68
1484067738.33,35714,6.44,72364.5,-19.73,-50.89,-51.25,0,*6F
1484067739.6,35715,6.44,72370.3,-19.73,-51.11,-51.55,0,*69
1484067740.82,35716,6.44,72374.0,-19.71,-50.75,-51.19,0,*63
1484067742.04,35717,6.44,72368.8,-19.71,-51.05,-51.41,0,*69
1484067743.31,35718,6.44,72366.5,-19.73,-51.47,-51.77,0,*67
1484067744.6,35719,6.44,72364.0,-19.73,-51.25,-51.91,0,*6A
1484067745.86,35720,6.44,72364.8,-19.71,-51.25,-51.77,0,*6A
1484067747.14,35721,6.44,72366.8,-19.71,-51.63,-51.91,0,*61
1484067748.38,35722,6.44,72366.0,-19.73,-51.69,-52.07,0,*66
1484067749.67,35723,6.44,72360.3,-19.73,-51.91,-52.21,0,*64
1484067750.96,35724,6.44,72356.0,-19.73,-51.99,-52.43,0,*6F
1484067752.21,35725,6.44,72362.0,-19.73,-51.77,-52.29,0,*62
1484067753.49,35726,6.44,72366.3,-19.73,-51.69,-51.91,0,*6E
1484067754.75,35727,6.44,72368.5,-19.73,-51.33,-51.77,0,*68
1484067756.01,35728,6.44,72370.3,-19.73,-51.25,-51.69,0,*6F
1484067757.3,35729,6.38,72364.0,-19.73,-51.25,-51.55,0,*61
1484067758.56,35730,6.44,72360.5,-19.73,-51.33,-51.77,0,*6E
1484067759.82,35731,6.44,72368.3,-19.71,-51.47,-51.69,0,*61
1484067761.08,35732,6.44,72370.5,-19.73,-51.25,-51.77,0,*6B
1484067762.36,35733,6.44,72370.5,-19.73,-51.69,-51.91,0,*6A
1484067763.61,35734,6.44,72368.3,-19.71,-51.41,-51.63,0,*68
1484067764.87,35735,6.44,72368.0,-19.73,-51.55,-51.77,0,*6B
1484067766.15,35736,6.44,72370.3,-19.73,-51.99,-52.21,0,*68
1484067767.39,35737,6.44,72368.3,-19.71,-51.99,-52.35,0,*6E
1484067768.65,35738,6.44,72368.5,-19.71,-52.07,-52.43,0,*64
1484067769.9,35739,6.44,72370.5,-19.73,-52.07,-52.29,0,*6B
1484067771.19,35740,6.44,72366.8,-19.73,-51.99,-52.43,0,*6D
1484067772.45,35741,6.44,72366.8,-19.73,-52.07,-52.29,0,*64
1484067773.71,35742,6.44,72364.3,-19.77,-52.35,-52.73,0,*6D
1484067774.98,35743,6.44,72366.5,-19.73,-52.29,-52.65,0,*62
1484067776.24,35744,6.44,72366.5,-19.73,-52.21,-52.65,0,*6D
1484067777.53,35745,6.44,72366.3,-19.73,-52.21,-52.43,0,*68
1484067778.82,35746,6.44,72364.3,-19.73,-52.29,-52.51,0,*60
1484067780.12,35747,6.44,72360.3,-19.73,-52.21,-52.43,0,*6A
1484067781.38,35748,6.44,72366.5,-19.73,-52.21,-52.65,0,*61
1484067782.67,35749,6.44,72374.8,-19.73,-52.43,-52.51,0,*63
1484067783.93,35750,6.44,72374.5,-19.77,-52.35,-52.73,0,*6E
1484067785.17,35751,6.44,72372.3,-19.77,-52.35,-52.79,0,*65
1484067786.43,35752,6.44,72362.3,-19.77,-52.51,-52.79,0,*64
1484067787.72,35753,6.44,72360.5,-19.77,-52.73,-52.93,0,*61
1484067788.94,35754,6.44,72358.3,-19.79,-52.57,-52.79,0,*6A
1484067790.21,35755,6.44,72366.5,-19.77,-52.35,-52.73,0,*6B
1484067791.45,35756,6.44,72362.5,-19.79,-52.29,-52.57,0,*6D
1484067792.66,35757,6.44,72362.3,-19.79,-52.35,-52.79,0,*6D
1484067793.93,35758,6.44,72362.0,-19.77,-52.57,-52.93,0,*6C
1484067795.17,35759,6.44,72360.5,-19.77,-52.35,-52.57,0,*61
1484067796.41,35760,6.44,72360.8,-19.79,-52.51,-52.79,0,*6B
1484067797.67,35761,6.44,72358.0,-19.79,-52.29,-52.73,0,*6F
1484067798.92,35762,6.44,72360.5,-19.79,-52.29,-52.57,0,*6A
1484067800.15,35763,6.44,72360.3,-19.79,-52.13,-52.35,0,*66
1484067801.39,35764,6.44,72362.5,-19.79,-52.07,-52.51,0,*66
1484067802.66,35765,6.44,72360.0,-19.79,-52.51,-52.73,0,*64
1484067803.92,35766,6.44,72358.0,-19.79,-52.29,-52.73,0,*68
1484067805.14,35767,6.38,72356.0,-19.79,-52.07,-52.57,0,*63
1484067806.35,35768,6.38,72356.8,-19.79,-52.07,-52.35,0,*68
1484067807.58,35769,6.44,72360.8,-19.79,-52.07,-52.29,0,*64
1484067808.84,35770,6.44,72358.0,-19.77,-51.99,-52.35,0,*6B
1484067810.08,35771,6.38,72362.5,-19.79,-52.13,-52.35,0,*65
1484067811.32,35772,6.44,72360.5,-19.79,-52.13,-52.57,0,*62
1484067812.55,35773,6.38,72354.8,-19.77,-51.85,-52.07,0,*64
1484067813.83,35774,6.44,72356.0,-19.77,-51.99,-52.29,0,*62
1484067815.1,35775,6.44,72360.5,-19.79,-52.13,-52.73,0,*63
1484067816.36,35776,6.44,72364.8,-19.79,-52.51,-52.93,0,*68
1484067817.58,35777,6.44,72362.0,-19.79,-52.35,-52.79,0,*6F
1484067818.84,35778,6.44,72358.3,-19.79,-51.63,-51.99,0,*6D
1484067820.08,35779,6.44,72358.0,-19.79,-51.55,-51.85,0,*64
1484067821.37,35780,6.44,72358.8,-19.77,-51.55,-51.99,0,*61
1484067822.66,35781,6.44,72360.0,-19.77,-51.63,-51.99,0,*65
1484067823.9,35782,6.38,72356.8,-19.77,-52.07,-52.35,0,*62
1484067825.11,35783,6.44,72358.3,-19.79,-52.07,-52.35,0,*6D
1484067826.35,35784,6.44,72358.0,-19.77,-52.07,-52.35,0,*64
1484067827.56,35785,6.44,72358.0,-19.79,-52.07,-52.35,0,*6B
1484067828.82,35786,6.44,72360.8,-19.77,-52.07,-52.29,0,*6B
1484067830.05,35787,6.44,72356.3,-19.77,-51.85,-52.07,0,*6F
1484067831.31,35788,6.38,72356.5,-19.77,-52.07,-52.29,0,*65
1484067832.57,35789,6.38,72360.8,-19.79,-52.13,-52.51,0,*60
1484067833.83,35790,6.44,72360.0,-19.77,-51.85,-52.29,0,*65
1484067835.04,35791,6.38,72358.5,-19.79,-52.07,-52.35,0,*6E
1484067836.32,35792,6.38,72362.3,-19.77,-51.99,-52.13,0,*63
1484067837.58,35793,6.38,72362.0,-19.77,-52.07,-52.51,0,*60
1484067838.85,35794,6.38,72362.8,-19.77,-52.13,-52.57,0,*64
1484067840.13,35795,6.44,72362.0,-19.77,-51.99,-52.29,0,*6D
1484067841.39,35796,6.38,72358.8,-19.77,-51.99,-52.35,0,*63
1484067842.65,35797,6.44,72366.0,-19.77,-51.99,-52.35,0,*62
1484067843.94,35798,6.44,72368.5,-19.77,-52.13,-52.73,0,*6E
1484067845.19,35799,6.44,72368.3,-19.77,-51.99,-52.35,0,*6C
1484067846.47,35800,6.44,72370.0,-19.77,-51.99,-52.13,0,*67
1484067847.74,35801,6.44,72368.8,-19.77,-52.13,-52.35,0,*63
1484067849.0,35802,6.38,72364.5,-19.77,-52.35,-52.73,0,*66
1484067850.24,35803,6.44,72372.5,-19.79,-52.07,-52.51,0,*68
1484067851.5,35804,6.44,72372.8,-19.77,-51.99,-52.35,0,*67
1484067852.74,35805,6.38,72374.3,-19.79,-52.07,-52.51,0,*6E
1484067854.0,35806,6.38,72372.0,-19.77,-52.13,-52.57,0,*60
1484067855.29,35807,6.38,72368.5,-19.77,-52.29,-52.73,0,*6E
1484067856.53,35808,6.44,72368.3,-19.77,-52.35,-52.57,0,*6A
1484067857.8,35809,6.38,72368.8,-19.79,-52.13,-52.51,0,*67
1484067859.04,35810,6.44,72368.8,-19.79,-52.29,-52.57,0,*60
1484067860.28,35811,6.44,72364.8,-19.79,-52.35,-52.73,0,*6A
1484067861.55,35812,6.38,72360.8,-19.79,-52.29,-52.51,0,*64
1484067862.79,35813,6.44,72366.8,-19.79,-52.35,-52.73,0,*68
1484067864.0,35814,6.44,72364.5,-19.79,-52.35,-52.57,0,*69
1484067865.24,35815,6.44,72366.3,-19.79,-52.35,-52.73,0,*6E
1484067866.48,35816,6.38,72364.0,-19.79,-52.29,-52.57,0,*66
1484067867.72,35817,6.38,72362.8,-19.79,-52.29,-52.57,0,*67
1484067868.99,35818,6.38,72364.5,-19.79,-52.29,-52.73,0,*6E
1484067870.25,35819,6.38,72362.0,-19.79,-52.51,-52.73,0,*60
1484067871.5,35820,6.38,72362.5,-19.79,-52.35,-52.73,0,*68
1484067872.73,35821,6.38,72360.8,-19.79,-52.07,-52.51,0,*68
1484067873.99,35822,6.44,72364.5,-19.79,-52.13,-52.29,0,*61
1484067875.21,35823,6.38,72362.0,-19.79,-51.77,-52.07,0,*6D
1484067876.45,35824,6.38,72362.8,-19.79,-52.13,-52.35,0,*6A
1484067877.7,35825,6.38,72360.5,-19.77,-52.07,-52.29,0,*6D
1484067878.97,35826,6.38,72364.8,-19.79,-51.63,-51.99,0,*69
1484067880.23,35827,6.38,72362.8,-19.79,-51.99,-52.13,0,*6C
1484067881.48,35828,6.38,72360.5,-19.79,-51.99,-52.29,0,*6A
1484067882.71,35829,6.38,72362.0,-19.79,-51.85,-52.29,0,*66
1484067883.98,35830,6.38,72364.8,-19.79,-52.29,-52.51,0,*64
1484067885.25,35831,6.44,72364.5,-19.79,-52.13,-52.51,0,*6C
1484067886.46,35832,6.44,72364.3,-19.79,-52.07,-52.35,0,*68
1484067887.69,35833,6.38,72360.5,-19.79,-51.99,-52.35,0,*6D
1484067888.92,35834,6.44,72364.3,-19.79,-52.07,-52.13,0,*6A
1484067890.16,35835,6.38,72364.0,-19.81,-52.07,-52.35,0,*68
1484067891.37,35836,6.44,72364.3,-19.79,-52.07,-52.35,0,*6C
1484067892.64,35837,6.44,72366.0,-19.79,-52.29,-52.73,0,*63
1484067893.9,35838,6.44,72368.0,-19.79,-52.29,-52.73,0,*6C
1484067895.11,35839,6.44,72368.3,-19.79,-52.07,-52.35,0,*63
1484067896.38,35840,6.38,72368.3,-19.79,-52.13,-52.51,0,*6A
1484067897.64,35841,6.38,72366.5,-19.81,-52.35,-52.73,0,*68
1484067898.88,35842,6.44,72360.8,-19.83,-52.43,-52.79,0,*62
1484067900.17,35843,6.44,72358.5,-19.81,-52.29,-52.73,0,*67
1484067901.41,35844,6.38,72352.5,-19.83,-52.29,-52.57,0,*64
1484067902.7,35845,6.44,72364.0,-19.81,-52.29,-52.73,0,*61
1484067903.93,35846,6.38,72362.8,-19.81,-52.35,-52.79,0,*65
1484067905.22,35847,6.38,72360.8,-19.81,-52.29,-52.51,0,*63
1484067906.43,35848,6.44,72364.8,-19.83,-52.07,-52.35,0,*60
1484067907.72,35849,6.38,72356.5,-19.81,-52.13,-52.51,0,*64
1484067908.96,35850,6.38,72356.8,-19.83,-52.07,-52.43,0,*68
1484067910.25,35851,6.38,72358.0,-19.81,-52.29,-52.51,0,*64
1484067911.51,35852,6.38,72360.5,-19.81,-52.51,-52.79,0,*62
1484067912.8,35853,6.44,72362.3,-19.81,-52.29,-52.73,0,*66
1484067914.06,35854,6.44,72362.3,-19.83,-52.29,-52.73,0,*63
1484067915.3,35855,6.38,72364.5,-19.83,-52.13,-52.57,0,*6D
1484067916.54,35856,6.38,72360.5,-19.83,-52.43,-52.65,0,*6A
1484067917.8,35857,6.38,72362.5,-19.81,-52.29,-52.79,0,*68
1484067919.04,35858,6.44,72366.5,-19.81,-52.35,-52.79,0,*6A
1484067920.3,35859,6.38,72364.8,-19.81,-52.13,-52.57,0,*63
1484067921.52,35860,6.38,72362.8,-19.83,-52.35,-52.57,0,*6F
1484067922.78,35861,6.38,72366.0,-19.81,-52.51,-52.79,0,*62
1484067924.0,35862,6.38,72366.5,-19.83,-52.57,-52.87,0,*64
1484067925.21,35863,6.44,72370.0,-19.83,-52.65,-52.87,0,*64
1484067926.43,35864,6.44,72376.3,-19.83,-52.35,-52.79,0,*67
1484067927.66,35865,6.38,72378.5,-19.83,-52.21,-52.57,0,*6F
1484067928.93,35866,6.38,72374.0,-19.83,-52.21,-52.43,0,*69
1484067930.17,35867,6.38,72370.8,-19.83,-52.21,-52.57,0,*6D
1484067931.43,35868,6.38,72364.8,-19.81,-52.35,-52.73,0,*63
1484067932.65,35869,6.38,72366.3,-19.83,-52.35,-52.65,0,*67
1484067933.91,35870,6.38,72366.5,-19.85,-52.43,-52.65,0,*68
1484067935.17,35871,6.38,72360.0,-19.85,-52.07,-52.21,0,*69
1484067936.38,35872,6.38,72354.5,-19.83,-52.07,-52.35,0,*69
1484067937.65,35873,6.38,72350.0,-19.85,-52.07,-52.43,0,*6F
1484067938.94,35874,6.38,72348.5,-19.85,-52.13,-52.43,0,*6D
1484067940.21,35875,6.38,72348.3,-19.85,-52.13,-52.35,0,*6D
1484067941.46,35876,6.44,72348.8,-19.83,-52.13,-52.21,0,*6D
1484067942.73,35877,6.38,72352.8,-19.85,-51.91,-52.35,0,*66
1484067943.99,35878,6.44,72354.8,-19.83,-51.91,-52.21,0,*6A
1484067945.23,35879,6.38,72362.8,-19.83,-51.47,-52.07,0,*64
1484067946.5,35880,6.38,72360.3,-19.81,-51.63,-52.07,0,*66
1484067947.7,35881,6.38,72358.8,-19.83,-51.85,-52.07,0,*6D
1484067948.96,35882,6.38,72354.3,-19.81,-51.85,-52.29,0,*60
1484067950.23,35883,6.38,72354.0,-19.83,-52.21,-52.43,0,*62
1484067951.46,35884,6.38,72352.8,-19.81,-52.07,-52.57,0,*66
1484067952.73,35885,6.38,72362.0,-19.81,-52.07,-52.43,0,*62
1484067953.99,35886,6.38,72364.0,-19.81,-52.07,-52.29,0,*6D
1484067955.2,35887,6.44,72364.5,-19.83,-52.07,-52.35,0,*63
1484067956.46,35888,6.38,72366.3,-19.83,-51.91,-52.21,0,*65
1484067957.67,35889,6.44,72370.5,-19.83,-52.07,-52.35,0,*6D
1484067958.9,35890,6.38,72366.0,-19.83,-52.13,-52.35,0,*60
1484067960.17,35891,6.38,72364.5,-19.81,-52.07,-52.51,0,*64
1484067961.4,35892,6.38,72362.3,-19.83,-52.43,-52.79,0,*6F
1484067962.64,35893,6.38,72364.0,-19.83,-52.21,-52.57,0,*66
1484067963.88,35894,6.38,72360.3,-19.83,-52.21,-52.57,0,*61
1484067965.12,35895,6.38,72362.3,-19.83,-52.21,-52.65,0,*61
1484067966.33,35896,6.38,72362.5,-19.83,-52.35,-52.79,0,*6A
1484067967.56,35897,6.38,72364.8,-19.83,-52.21,-52.79,0,*6E
1484067968.78,35898,6.38,72364.8,-19.83,-52.35,-52.57,0,*68
1484067969.99,35899,6.38,72358.3,-19.83,-52.35,-52.65,0,*68
1484067971.23,35900,6.44,72358.0,-19.85,-52.35,-52.65,0,*6F
1484067972.52,35901,6.38,72350.8,-19.85,-52.13,-52.43,0,*6E
1484067973.79,35902,6.38,72352.5,-19.85,-52.13,-52.57,0,*68
1484067975.05,35903,6.38,72356.5,-19.85,-52.21,-52.65,0,*69
1484067976.32,35904,6.38,72356.3,-19.85,-52.21,-52.57,0,*6F
1484067977.61,35905,6.38,72358.8,-19.89,-52.13,-52.43,0,*66
1484067978.85,35906,6.38,72358.3,-19.85,-52.35,-52.65,0,*69
1484067980.12,35907,6.38,72358.3,-19.85,-52.43,-52.57,0,*68
1484067981.4,35908,6.44,72356.5,-19.85,-52.13,-52.21,0,*63
1484067982.7,35909,6.38,72356.5,-19.85,-52.13,-52.43,0,*66
1484067983.96,35910,6.38,72360.5,-19.89,-52.51,-52.87,0,*6C
1484067985.23,35911,6.38,72362.8,-19.85,-52.21,-52.65,0,*6A
1484067986.52,35912,6.38,72358.0,-19.85,-51.91,-52.21,0,*61
1484067987.81,35913,6.44,72362.3,-19.85,-52.21,-52.43,0,*6C
1484067989.05,35914,6.38,72362.3,-19.85,-52.35,-52.79,0,*67
1484067990.31,35915,6.38,72362.3,-19.85,-52.21,-52.65,0,*6E
1484067991.58,35916,6.38,72362.0,-19.85,-52.21,-52.57,0,*6C
1484067992.87,35917,6.38,72364.0,-19.89,-52.43,-52.73,0,*63
1484067994.14,35918,6.38,72366.8,-19.89,-52.43,-52.87,0,*67
1484067995.4,35919,6.38,72366.8,-19.85,-52.43,-52.79,0,*6B
1484067996.66,35920,6.38,72362.3,-19.89,-52.29,-52.87,0,*60
1484067997.93,35921,6.38,72364.5,-19.89,-52.29,-52.65,0,*6D
1484067999.22,35922,6.38,72364.0,-19.89,-52.29,-52.51,0,*69
1484068000.51,35923,6.38,72366.0,-19.89,-52.43,-52.51,0,*64
1484068001.77,35924,6.38,72364.3,-19.85,-52.13,-52.35,0,*68
1484068003.06,35925,6.38,72362.3,-19.89,-52.13,-52.29,0,*68
1484068004.35,35926,6.44,72364.5,-19.89,-52.21,-52.51,0,*65
1484068005.64,35927,6.38,72364.0,-19.89,-52.13,-52.51,0,*65
1484068006.9,35928,6.38,72366.3,-19.85,-51.69,-52.13,0,*6E
1484068008.19,35929,6.44,72368.5,-19.85,-51.91,-52.21,0,*69
1484068009.48,35930,6.38,72366.5,-19.89,-52.13,-52.51,0,*63
1484068010.77,35931,6.38,72368.8,-19.89,-52.21,-52.51,0,*63
1484068012.03,35932,6.38,72366.3,-19.89,-52.43,-52.65,0,*63
1484068013.32,35933,6.38,72368.0,-19.89,-51.91,-52.21,0,*6E
1484068014.61,35934,6.38,72370.5,-19.89,-52.13,-52.43,0,*64
1484068015.91,35935,6.38,72366.8,-19.89,-51.91,-52.43,0,*6C
1484068017.2,35936,6.38,72364.5,-19.89,-52.21,-52.43,0,*67
1484068018.49,35937,6.38,72368.8,-19.89,-52.13,-52.51,0,*64
1484068019.76,35938,6.38,72366.0,-19.89,-52.29,-52.65,0,*65
1484068021.02,35939,6.38,72360.0,-19.89,-52.51,-52.65,0,*6B
1484068022.29,35940,6.38,72362.3,-19.89,-52.43,-52.87,0,*6A
1484068023.55,35941,6.38,72366.0,-19.89,-52.51,-52.87,0,*68
1484068024.82,35942,6.38,72368.8,-19.89,-52.51,-52.87,0,*6B
1484068026.06,35943,6.38,72368.0,-19.89,-52.65,-53.09,0,*6A
1484068027.32,35944,6.38,72366.5,-19.91,-52.73,-53.15,0,*6E
1484068028.56,35945,6.38,72362.3,-19.93,-52.57,-53.01,0,*6E
1484068029.82,35946,6.38,72362.0,-19.91,-52.43,-52.73,0,*6E
1484068031.06,35947,6.38,72362.8,-19.93,-52.35,-52.79,0,*66
1484068032.29,35948,6.38,72362.3,-19.91,-52.29,-52.65,0,*6B
1484068033.58,35949,6.38,72366.8,-19.93,-52.73,-53.15,0,*61
1484068034.85,35950,6.38,72364.0,-19.93,-52.57,-52.93,0,*60
1484068036.11,35951,6.38,72360.0,-19.91,-52.29,-52.73,0,*64
1484068037.34,35952,6.38,72362.0,-19.91,-52.43,-52.87,0,*60
1484068038.61,35953,6.38,72360.5,-19.91,-52.13,-52.43,0,*6C
1484068039.87,35954,6.38,72360.5,-19.93,-52.35,-52.73,0,*6E
1484068041.13,35955,6.38,72362.8,-19.91,-52.29,-52.73,0,*60
1484068042.37,35956,6.38,72364.8,-19.93,-52.35,-52.57,0,*6A
1484068043.61,35957,6.38,72360.5,-19.93,-52.57,-52.79,0,*63
1484068044.89,35958,6.38,72358.3,-19.93,-52.51,-52.93,0,*6E
1484068046.15,35959,6.38,72358.3,-19.91,-52.29,-52.73,0,*6C
1484068047.41,35960,6.38,72360.5,-19.93,-52.51,-52.79,0,*61
1484068048.65,35961,6.38,72362.0,-19.93,-52.35,-52.57,0,*6E
1484068049.91,35962,6.38,72360.5,-19.93,-52.35,-52.73,0,*6B
1484068051.17,35963,6.38,72360.8,-19.93,-52.29,-52.57,0,*61
1484068052.44,35964,6.38,72360.0,-19.93,-52.29,-52.57,0,*66
1484068053.7,35965,6.38,72358.3,-19.93,-52.21,-52.57,0,*6F
1484068054.99,35966,6.38,72356.3,-19.93,-52.29,-52.73,0,*62
1484068056.24,35967,6.38,72356.0,-19.93,-52.29,-52.79,0,*69
1484068057.5,35968,6.38,72352.5,-19.93,-52.51,-52.79,0,*69
1484068058.79,35969,6.38,72352.8,-19.93,-52.29,-52.51,0,*6D
1484068060.05,35970,6.38,72354.5,-19.93,-52.29,-52.57,0,*63
1484068061.32,35971,6.38,72354.0,-19.93,-52.35,-52.73,0,*69
1484068062.56,35972,6.38,72356.8,-19.95,-52.51,-52.57,0,*68
1484068063.82,35973,6.38,72358.3,-19.93,-52.51,-52.57,0,*6F
1484068065.08,35974,6.38,72354.8,-19.93,-52.51,-52.79,0,*64
1484068066.34,35975,6.38,72356.8,-19.93,-52.57,-52.93,0,*67
1484068067.61,35976,6.38,72356.5,-19.93,-52.51,-52.79,0,*66
1484068068.87,35977,6.38,72356.8,-19.93,-52.35,-52.73,0,*6F
1484068070.15,35978,6.38,72354.5,-19.93,-52.29,-52.73,0,*6D
1484068071.39,35979,6.38,72356.3,-19.95,-52.29,-52.57,0,*6C
1484068072.62,35980,6.38,72354.0,-19.95,-51.99,-52.35,0,*66
1484068073.86,35981,6.38,72348.0,-19.93,-52.07,-52.35,0,*65
1484068075.12,35982,6.38,72350.0,-19.95,-52.21,-52.51,0,*66
1484068076.35,35983,6.38,72348.5,-19.95,-51.99,-52.35,0,*65
1484068077.62,35984,6.38,72352.0,-19.93,-52.07,-52.51,0,*62
1484068078.85,35985,6.38,72348.3,-19.95,-52.21,-52.35,0,*63
1484068080.11,35986,6.38,72348.3,-19.93,-51.77,-52.21,0,*63
1484068081.37,35987,6.38,72346.8,-19.95,-51.99,-52.21,0,*64
1484068082.6,35988,6.38,72350.5,-19.95,-51.55,-51.85,0,*66
1484068083.89,35989,6.38,72346.5,-19.93,-51.33,-51.63,0,*69
1484068085.15,35990,6.38,72344.5,-19.93,-51.41,-51.63,0,*64
1484068086.41,35991,6.38,72346.8,-19.93,-51.55,-51.85,0,*68
1484068087.64,35992,6.38,72348.0,-19.93,-51.77,-52.07,0,*62
1484068088.92,35993,6.38,72350.8,-19.93,-51.99,-52.29,0,*6F
1484068090.18,35994,6.38,72346.8,-19.91,-52.13,-52.51,0,*64
1484068091.47,35995,6.38,72350.3,-19.93,-52.29,-52.51,0,*6E
1484068092.76,35996,6.38,72350.5,-19.93,-52.21,-52.51,0,*65
1484068094.01,35997,6.38,72346.0,-19.93,-52.07,-52.29,0,*6F
1484068095.27,35998,6.38,72348.5,-19.93,-51.99,-52.35,0,*69
1484068096.52,35999,6.38,72354.8,-19.91,-51.91,-52.29,0,*6F
1484068097.79,36000,6.38,72350.3,-19.93,-51.63,-52.07,0,*66
1484068099.04,36001,6.38,72350.5,-19.93,-51.85,-52.29,0,*63
1484068100.29,36002,6.38,72344.8,-19.93,-51.85,-52.29,0,*60
1484068101.57,36003,6.38,72350.3,-19.93,-51.99,-52.21,0,*64
1484068102.85,36004,6.38,72352.8,-19.93,-51.99,-52.29,0,*6B